Theta_e
302 299 300 302 301 302 302 302 301 299 300 301 300 300 301 302 301 301 301 304 304 305 305 307 307 306 305 306 305 305 304 303 302 302 302 303 303 303 303 306 307 310 327 328
302 300 301 302 302 302 300 299 298 299 300 303 302 303 303 303 304 303 305 305 305 307 306 305 305 305 305 305 304 303 301 301 301 301 302 302 302 303 303 303 304 304 311 327
304 302 300 300 301 299 298 299 299 299 301 303 302 302 304 304 305 305 303 303 303 304 304 302 302 302 303 302 301 299 299 299 299 298 299 300 300 300 301 302 304 307 311 311
301 300 299 300 300 298 297 299 299 300 303 302 303 303 304 305 303 303 303 302 302 302 302 301 300 301 301 300 298 296 296 296 295 296 296 297 298 299 299 301 302 303 304 309
301 299 299 301 300 299 297 298 298 300 303 303 305 300 304 304 305 303 303 302 301 300 299 300 300 300 299 298 296 294 294 293 293 294 294 294 296 297 299 300 301 302 305 305
298 297 300 300 299 298 299 301 304 304 303 296 304 304 303 303 305 304 303 301 299 298 299 299 299 298 296 294 293 291 291 291 292 292 292 293 294 295 296 297 299 300 303 306
298 298 298 298 297 299 301 296 289 293 297 298 304 303 303 302 303 304 302 300 297 297 299 298 296 294 293 291 289 289 289 289 289 290 291 292 292 293 296 297 299 301 303 306
295 295 299 297 296 297 303 297 289 287 294 298 300 300 302 303 302 301 300 298 298 299 298 297 295 292 290 289 288 288 288 288 289 289 290 291 292 293 295 297 298 300 302 304
297 298 296 297 296 299 300 296 299 289 290 296 300 302 303 303 302 301 299 298 298 298 297 295 292 289 288 287 287 287 287 287 287 288 289 291 292 293 294 296 298 300 302 304
296 293 295 296 297 300 300 300 297 289 288 288 296 301 302 302 302 301 297 298 298 297 296 293 290 288 287 287 286 286 286 286 287 288 289 290 292 293 293 294 298 300 301 304
296 294 296 295 295 300 295 295 292 294 295 291 293 297 298 301 301 297 296 298 297 296 295 291 288 287 286 286 285 286 286 286 287 289 290 291 293 294 294 295 296 300 303 304
297 297 296 297 295 295 297 300 294 288 290 297 294 298 299 298 298 296 296 298 296 295 294 290 287 286 286 285 285 285 285 286 288 292 292 292 294 294 295 297 299 301 302 305
296 292 290 295 296 297 296 296 299 287 286 293 288 294 299 296 297 294 296 298 296 294 292 288 286 285 285 285 285 285 285 286 287 290 294 295 295 296 297 297 299 298 302 303
297 294 291 296 297 295 298 297 299 291 286 286 293 291 296 296 293 293 293 298 294 293 291 287 285 284 284 285 285 285 284 285 286 289 290 290 290 291 291 291 292 293 296 296
296 290 291 292 295 294 294 294 296 296 290 291 291 292 294 294 292 292 290 292 294 293 290 286 284 283 284 284 285 284 284 284 285 286 287 287 288 288 289 289 289 290 291 290
296 292 295 291 294 295 296 295 295 295 294 294 296 296 296 296 295 289 290 290 293 292 289 286 284 283 284 284 284 284 284 284 285 285 286 286 286 287 287 287 287 287 287 287
295 292 286 290 293 294 292 293 294 291 290 292 290 293 290 289 290 291 286 292 292 290 287 286 283 283 283 283 284 284 284 284 284 285 285 285 285 285 285 285 286 286 286 286
293 291 287 288 288 293 298 298 292 294 293 291 290 290 293 288 289 295 286 292 291 289 287 285 283 282 283 283 283 283 284 284 284 284 284 285 285 284 284 285 285 285 285 285
293 292 286 287 281 293 298 295 295 292 294 294 295 295 294 296 298 298 289 291 290 288 286 285 283 282 283 283 283 283 282 283 283 284 284 284 284 284 284 284 284 284 284 284
294 291 287 278 286 292 297 294 297 296 292 295 295 295 296 298 296 292 292 290 288 286 285 285 283 282 282 283 283 282 282 282 282 283 283 283 283 283 283 283 283 283 283 283
293 293 289 280 283 290 293 297 297 291 296 297 296 296 294 296 291 292 290 282 285 285 285 285 284 282 283 283 282 282 282 282 282 283 283 283 282 282 282 282 282 282 282 282
292 291 288 284 285 297 294 297 294 295 298 297 296 294 292 295 293 292 286 283 280 281 284 285 284 283 284 284 283 282 282 282 283 283 283 282 282 282 282 282 282 281 281 281
296 295 292 293 295 295 295 295 294 295 295 295 294 292 292 295 295 292 289 287 284 284 285 285 285 284 284 284 283 282 282 284 284 284 283 283 283 283 282 282 281 281 281 280
290 291 293 294 297 294 293 294 292 292 293 293 292 291 292 295 295 293 291 289 287 286 284 284 284 283 282 284 284 283 283 284 285 284 283 283 284 283 282 281 281 281 281 280
292 291 290 290 293 292 293 290 292 292 290 290 291 291 291 293 293 293 291 289 287 285 284 283 282 281 281 283 284 284 283 285 284 283 282 282 281 281 281 281 281 281 281 282
289 291 293 297 294 297 296 293 291 290 289 288 290 291 290 291 292 291 290 289 287 284 283 282 282 281 281 280 281 282 281 281 282 281 281 281 281 281 281 282 282 282 282 282
Wind_Speed
3 6 2 1 2 1 2 3 5 5 1 9 3 17 18 20 6 9 8 2 4 6 5 2 7 8 8 15 22 27 27 29 32 31 30 32 28 33 37 30 25 36 39 52
5 3 2 3 4 3 3 4 5 7 6 6 8 17 14 13 4 5 5 1 4 3 5 7 14 20 25 30 29 25 25 26 28 28 29 32 31 30 31 36 34 36 36 40
4 3 2 2 2 4 3 2 3 6 8 5 8 7 6 5 2 4 7 4 8 8 7 8 14 25 26 28 27 23 25 27 28 30 33 31 28 26 26 27 30 24 26 39
4 2 0 1 1 2 4 2 3 8 5 2 5 4 5 4 5 5 4 6 4 7 9 13 20 25 27 22 27 28 32 32 30 31 31 31 27 23 24 27 30 31 31 30
2 3 1 1 1 1 8 7 7 4 2 3 3 3 7 6 3 4 2 6 7 6 8 17 16 25 24 29 28 30 31 32 35 30 30 31 30 28 25 26 27 29 30 31
2 1 1 2 2 3 8 7 2 1 2 3 5 4 6 4 3 3 3 7 7 8 16 16 24 25 31 30 31 33 31 31 30 31 32 33 30 29 26 25 26 27 29 28
1 1 1 1 2 2 6 5 4 6 4 5 2 1 10 8 4 3 3 8 7 8 16 18 21 21 27 29 31 31 30 31 32 32 32 32 33 32 26 23 21 23 23 26
3 4 3 1 2 2 3 5 4 4 2 5 6 6 6 5 7 3 4 7 11 14 16 19 19 22 26 29 30 31 32 33 31 31 32 32 31 29 26 24 26 27 25 26
3 2 2 4 1 4 3 3 4 4 1 2 4 7 9 5 4 6 11 9 13 14 17 19 18 25 28 29 31 31 32 34 33 31 31 30 29 29 25 22 28 29 29 29
4 3 1 2 2 4 3 2 2 3 2 5 6 6 6 7 6 7 11 11 13 17 18 17 17 23 28 29 31 32 31 32 33 32 30 28 27 26 25 27 26 29 31 32
3 3 0 3 5 7 2 2 2 3 4 4 3 7 7 3 2 4 11 12 13 18 17 16 16 25 27 30 31 32 31 32 33 30 25 24 22 23 23 27 29 28 26 29
2 4 2 7 1 4 4 6 5 4 5 4 3 8 7 5 6 6 14 14 14 17 16 15 16 24 26 29 31 30 31 31 33 24 15 17 18 20 21 22 24 23 24 21
6 1 3 6 4 3 4 5 4 4 3 5 5 7 2 8 13 15 13 13 17 18 17 16 16 16 22 27 30 31 31 31 31 25 11 9 9 11 13 13 16 16 19 17
3 3 6 6 4 3 4 6 7 6 4 3 9 11 22 18 11 14 10 12 13 17 16 15 16 16 22 26 28 30 29 30 27 23 14 7 3 5 7 10 14 17 20 21
3 4 3 5 12 6 11 11 9 13 10 7 6 9 17 18 12 10 5 8 16 17 18 16 16 16 20 24 28 28 29 28 24 23 21 17 14 16 20 21 23 25 27 29
2 2 2 6 4 5 8 13 16 18 15 15 22 27 25 19 2 4 5 8 14 15 16 16 15 16 16 23 26 27 27 27 24 25 23 22 22 23 23 27 24 30 31 32
6 4 3 6 6 7 7 7 14 5 6 11 7 14 2 5 4 4 5 8 10 12 15 15 14 15 20 23 25 25 26 26 25 25 26 26 23 23 20 26 26 28 31 34
5 5 3 4 6 3 5 3 10 12 7 15 7 8 8 7 5 2 1 3 7 10 12 12 11 19 21 23 24 25 27 26 26 26 26 26 24 23 26 27 28 30 30 34
3 4 1 2 2 9 5 4 6 7 8 14 18 16 8 5 2 3 2 3 3 5 7 12 18 18 20 22 22 22 25 26 26 26 25 25 24 23 25 26 28 29 30 33
3 5 3 3 3 6 5 4 4 5 5 6 11 11 6 3 2 4 3 1 2 4 7 12 16 17 18 21 19 18 21 23 24 26 27 28 26 27 27 28 29 30 32 33
4 2 5 3 3 10 9 5 3 5 6 5 8 7 7 5 5 5 5 3 2 2 6 10 14 16 16 16 17 17 18 20 21 25 27 28 29 29 28 30 29 30 32 34
9 9 5 3 2 9 8 5 7 4 0 5 6 6 6 4 5 5 6 5 4 1 4 8 10 13 14 14 17 16 18 17 21 23 26 26 27 27 27 30 27 28 30 31
4 7 7 11 8 3 11 6 7 3 4 5 5 5 7 7 7 7 6 6 5 5 4 6 7 10 14 14 15 14 13 15 19 23 24 24 25 25 24 24 22 22 21 21
5 5 4 2 7 17 14 14 7 7 9 6 6 7 8 7 7 7 6 6 6 8 6 6 7 7 9 11 13 12 12 14 19 22 21 21 23 22 21 21 22 22 21 21
4 9 6 7 10 11 16 12 13 12 10 8 8 8 10 8 6 7 7 7 7 11 10 9 8 6 5 6 8 8 9 10 16 17 17 18 18 20 21 20 17 17 13 15
6 8 6 8 8 5 6 4 6 9 10 11 9 7 6 9 8 8 7 10 14 15 14 12 11 9 7 6 6 7 7 7 10 14 13 14 15 15 16 17 15 12 10 8
Wind_Direction
12 65 69 185 73 129 232 253 275 260 254 343 253 287 293 298 271 255 275 230 277 270 287 286 303 318 324 320 315 312 308 305 306 307 296 293 285 291 294 291 292 272 228 211
28 101 182 273 258 247 300 298 307 300 356 305 294 294 294 291 241 189 166 340 264 254 296 353 357 331 318 307 305 303 305 304 302 300 296 286 284 282 282 288 288 290 267 256
138 155 229 268 336 4 305 223 296 257 316 313 347 319 328 302 105 78 22 20 26 24 6 331 324 319 311 304 303 309 306 300 292 291 292 291 286 285 280 281 285 284 291 261
86 207 58 310 71 64 303 161 303 294 15 297 72 283 301 284 329 96 63 64 29 358 342 331 320 312 307 306 311 311 306 298 293 289 282 276 276 269 270 273 280 284 282 271
203 177 72 185 142 81 253 308 281 263 245 35 338 62 268 302 292 306 348 31 9 334 319 320 317 308 312 310 308 305 297 295 291 284 280 279 278 271 266 268 274 278 280 282
125 84 149 195 270 210 287 310 354 116 91 22 240 139 280 260 236 288 349 354 318 322 333 320 317 318 312 312 310 306 301 294 289 284 278 272 272 270 265 265 267 269 273 275
126 183 159 88 14 33 26 35 341 360 13 223 173 273 247 263 261 52 350 325 319 321 328 326 326 323 319 315 311 307 302 295 290 282 275 270 269 269 267 261 261 261 266 271
133 319 178 22 92 165 28 120 146 242 287 274 325 235 255 212 122 122 10 329 322 335 330 326 323 322 317 314 311 308 303 298 292 285 278 271 264 261 260 260 254 256 260 262
141 254 68 67 80 106 272 59 185 91 7 32 265 287 298 188 38 1 350 325 331 322 331 329 329 325 319 315 313 311 306 299 293 284 277 270 264 258 250 259 256 255 260 261
218 21 128 142 89 27 112 139 43 17 357 300 288 280 241 288 339 331 323 325 330 334 331 331 329 323 321 319 317 314 308 300 294 286 274 265 261 254 254 251 258 257 262 264
151 104 289 106 202 172 25 355 16 120 146 193 293 267 226 243 315 296 323 335 335 332 331 329 329 325 323 323 325 320 316 313 307 289 267 260 260 252 253 249 258 262 261 264
240 139 218 220 212 122 165 196 146 126 257 223 168 268 260 256 6 344 336 344 334 329 329 333 332 330 330 331 332 330 328 326 324 322 276 261 258 251 251 252 256 256 259 231
194 345 2 341 344 5 199 198 146 122 91 218 141 262 256 300 332 341 338 334 335 330 335 341 336 335 334 334 336 337 337 335 337 341 293 274 252 251 253 247 238 212 202 176
134 113 172 202 201 135 201 193 182 140 142 211 229 277 292 306 321 320 317 335 329 339 341 340 338 336 337 338 340 341 343 344 349 3 17 43 74 138 150 143 137 140 143 134
118 182 194 244 258 239 249 238 205 207 196 183 258 225 271 285 291 292 286 335 340 344 345 343 341 337 341 344 346 348 349 351 360 21 20 31 61 83 89 95 96 107 110 110
180 254 36 293 273 225 260 231 221 232 235 253 259 278 279 278 309 309 313 346 343 342 342 342 343 339 342 348 351 351 354 358 11 27 26 36 50 67 74 86 88 91 94 96
155 126 83 269 344 303 296 229 189 193 216 206 195 232 305 288 289 313 312 357 338 337 341 341 344 341 343 348 355 359 1 11 21 33 36 39 48 59 75 82 80 83 85 90
137 121 118 263 351 344 246 190 177 196 222 207 264 256 249 235 260 178 239 346 332 338 339 346 344 341 347 352 5 8 15 20 27 33 39 44 50 58 65 74 76 79 84 86
130 129 89 156 213 298 297 176 156 174 280 207 224 250 261 265 200 223 140 341 318 334 328 344 348 349 349 3 5 24 27 27 31 34 37 45 52 60 64 67 75 80 83 86
108 80 123 79 159 233 241 167 136 124 293 206 193 235 227 128 353 255 194 238 326 312 336 352 4 17 16 15 23 30 35 35 34 38 41 49 54 61 66 71 73 81 83 85
171 176 187 187 238 284 241 173 140 82 245 182 180 202 178 183 197 165 167 237 229 271 359 20 27 29 25 34 42 37 41 36 47 60 63 60 61 63 67 71 72 79 82 83
171 159 191 115 150 278 154 83 184 213 198 184 185 188 191 195 166 179 188 186 196 196 38 44 41 35 36 46 54 44 43 61 70 70 70 67 69 69 72 78 76 80 87 86
224 197 182 189 212 238 202 205 221 192 200 207 190 198 182 190 197 182 188 182 188 170 123 88 73 59 51 49 56 51 52 79 84 84 81 80 83 80 78 78 79 79 82 87
236 180 236 145 239 235 230 250 246 222 223 206 211 196 181 191 192 187 176 180 179 181 170 140 113 76 65 62 65 70 77 87 90 88 87 88 89 89 90 96 100 105 107 107
191 144 188 264 280 280 260 233 231 239 227 221 211 199 197 186 197 185 188 186 187 189 186 184 159 146 123 106 97 94 95 100 96 97 98 97 98 98 94 87 91 100 107 121
189 185 180 227 206 212 243 228 191 215 228 219 202 211 199 184 195 187 195 191 186 190 193 193 191 184 172 153 142 138 133 128 121 115 112 112 114 114 113 110 99 83 94 108